Weather History for Newport, RI

Change the Weather History Date:

Saturday, March 9, 2013

  Actual Average Record
Temperature  
Mean Temperature 36 °F -  
Max Temperature 43 °F 43 °F 60 °F (2002)
Min Temperature 30 °F 27 °F 7 °F (2007)
Degree Days  
Heating Degree Days 28    
Moisture  
Dew Point 26 °F    
Average Humidity 67    
Maximum Humidity 92    
Minimum Humidity 49    
Precipitation  
Precipitation 0.00 in - - ()
Sea Level Pressure  
Sea Level Pressure 30.21 in    
Wind  
Wind Speed 13 mph (North)    
Max Wind Speed 18 mph    
Max Gust Speed 25 mph    
Visibility 10 miles    
Events      
Averages and records for this station are not official NWS values.
T = Trace of Precipitation, MM = Missing Value Source: NWS Daily Summary

Daily Weather History Graph

Daily Weather History Graph

Search for Another Location

Airport:

Trip Planner

Search our weather history database for the weather conditions in past years. The results will help you decide how hot, cold, wet, or windy it might be!

Date:

Astronomy

Mar. 09, 2013 Rise Set
Actual Time 6:06 AM EST 5:45 PM EST
Civil Twilight 5:38 AM EST 6:12 PM EST
Nautical Twilight 5:06 AM EST 6:45 PM EST
Astronomical Twilight 4:34 AM EST 7:17 PM EST
Moon 4:29 AM EST (3/9) 3:42 PM EST (3/9)
Length of Visible Light 12h 33m
Length of Day
11h 38m
Waning Crescent, 5% of the Moon is Illuminated
Mar 9
Waning Crescent
Mar 11
New
Mar 19
First Quarter
Mar 27
Full
Apr 3
Last Quarter

Hourly Weather History & Observations

Time (EST) Temp. Windchill Dew Point Humidity Pressure Visibility Wind Dir Wind Speed Gust Speed Precip Events Conditions
12:53 AM 36.0 °F 27.1 °F 24.1 °F 62% 30.09 in 10.0 mi North 13.8 mph - N/A   Clear
1:53 AM 35.1 °F 25.9 °F 23.0 °F 61% 30.09 in 10.0 mi North 13.8 mph 20.7 mph N/A   Clear
2:53 AM 34.0 °F 24.2 °F 21.9 °F 61% 30.09 in 10.0 mi North 15.0 mph 21.9 mph N/A   Clear
3:53 AM 34.0 °F 25.0 °F 21.9 °F 61% 30.09 in 10.0 mi North 12.7 mph 21.9 mph N/A   Clear
4:53 AM 33.1 °F 23.0 °F 21.9 °F 64% 30.11 in 10.0 mi North 15.0 mph 20.7 mph N/A   Clear
5:53 AM 32.0 °F 22.5 °F 21.9 °F 66% 30.14 in 10.0 mi North 12.7 mph 18.4 mph N/A   Clear
6:53 AM 32.0 °F 22.1 °F 21.9 °F 66% 30.16 in 10.0 mi North 13.8 mph - N/A   Clear
7:53 AM 34.0 °F 25.0 °F 24.1 °F 67% 30.18 in 10.0 mi North 12.7 mph 21.9 mph N/A   Clear
8:53 AM 36.0 °F 27.1 °F 26.1 °F 67% 30.19 in 10.0 mi North 13.8 mph 24.2 mph N/A   Clear
9:53 AM 37.9 °F 28.9 °F 28.0 °F 68% 30.20 in 10.0 mi North 16.1 mph - N/A   Clear
10:53 AM 39.0 °F 29.9 °F 27.0 °F 62% 30.20 in 10.0 mi North 17.3 mph 25.3 mph N/A   Clear
11:53 AM 42.1 °F 34.2 °F 28.9 °F 60% 30.21 in 10.0 mi North 16.1 mph 23.0 mph N/A   Clear
12:53 PM 42.1 °F 33.6 °F 28.9 °F 60% 30.21 in 10.0 mi NNE 18.4 mph 25.3 mph N/A   Clear
1:53 PM 42.1 °F 34.9 °F 27.0 °F 55% 30.21 in 10.0 mi North 13.8 mph 24.2 mph N/A   Clear
2:53 PM 43.0 °F 35.4 °F 26.1 °F 51% 30.22 in 10.0 mi NNE 16.1 mph 24.2 mph N/A   Clear
3:53 PM 43.0 °F 36.0 °F 25.0 °F 49% 30.22 in 10.0 mi NNE 13.8 mph 19.6 mph N/A   Clear
4:53 PM 41.0 °F 34.7 °F 28.0 °F 60% 30.25 in 10.0 mi NNE 10.4 mph - N/A   Clear
5:53 PM 37.0 °F 32.4 °F 27.0 °F 67% 30.27 in 10.0 mi NE 5.8 mph - N/A   Clear
6:53 PM 35.1 °F 28.6 °F 27.0 °F 72% 30.28 in 10.0 mi NNE 8.1 mph - N/A   Clear
7:53 PM 33.1 °F 26.9 °F 27.0 °F 78% 30.30 in 10.0 mi NNE 6.9 mph - N/A   Clear
8:53 PM 32.0 °F 27.5 °F 28.0 °F 85% 30.31 in 10.0 mi NNE 4.6 mph - N/A   Clear
9:53 PM 30.9 °F 26.2 °F 27.0 °F 85% 30.32 in 10.0 mi North 4.6 mph - N/A   Clear
10:53 PM 30.0 °F 23.2 °F 28.0 °F 92% 30.30 in 10.0 mi NNE 6.9 mph - N/A   Clear
11:53 PM 30.0 °F 23.2 °F 28.0 °F 92% 30.32 in 10.0 mi North 6.9 mph - N/A   Clear